World > North America > United States > Virginia > Eastend

Hourly Eastend, VA Regional Weather

Feedback E-mail the Weather

Quick WX

Eastend, VA Weather Maps

°F °C°F °C
Eastend Weather Map
UTC Time: 8/8/2022, 19:42
Your Time:

Eastend, VA Regional Weather

Expires:202208082000;;690814
ASUS41 KAKQ 081916
RWRAKQ

REGIONAL WEATHER ROUNDUP
NATIONAL WEATHER SERVICE WAKEFIELD VA
300 PM EDT MON AUG 08 2022

Note: "fair" indicates few or no clouds below 12,000 feet with no
significant weather and/or obstructions to visibility. * = Denotes
station may not report precipitation (e.g., rain,snow,etc.),
thunder or fog.


VAZ088>098-082000-
SOUTHEAST VIRGINIA
  
CITY           SKY/WX    TMP DP  RH WIND       PRES   REMARKS
NORFOLK        MOSUNNY   90  73  57 SW8       30.06F HX  98           
VIRGINIA BEACH PTSUNNY   92  72  51 SW8       30.06F HX  99           
NORFOLK NAVAL  PTSUNNY   92  77  61 S9        30.07F HX 105           
WEST POINT*    NOT AVBL                                               
SALUDA*          N/A    N/A N/A N/A MISG        N/A                   
NEWPORT NEWS   MOSUNNY   91  75  59 S10       30.06F HX 101           
LANGLEY AFB    MOSUNNY   91  75  59 S13       30.05F HX 102           
FORT EUSTIS    MOSUNNY   91  75  59 S8        30.04F HX 101           
WILLIAMSBURG*  NOT AVBL                                               
HR EXEC AP*    FAIR      93  76  57 S8        30.07F HX 105           
FRANKLIN*      MOSUNNY   91  72  53 S10       30.07F HX  97           
US460-WAKEFLD  MOSUNNY   90  74  59 S6        30.06F HX  99           
$$


SKY/WX - Weather  TMP - Temperature  DP - Dew Point  RH - Humidity
WIND - Wind Direction/Speed PRES - Barometric Pressure VSB - Visibility
WCI - Wind Chill Index E13G22 Wind - East Wind 13 mph/Gusts of 22 mph

Trending Headlines

Eastend Radar Loop



Eastend Quick Facts


National Two Day Weather Forecast


E-mail the Eastend Weather Forecast

Voice your opinion or tell us about page issues...